Temperature
9 8 8 8 8 8 8 8 8 8 8 8 8 8 8 8 8 8 8 8 8 8 8 8 8 8 7 7 7 7 7 7 7 7 7 7 7 7 7 7 7 7 7
8 8 8 8 8 8 8 8 8 7 7 7 7 7 7 7 7 7 7 7 7 7 7 7 7 7 7 7 7 7 7 7 7 6 6 6 6 6 7 7 7 6 6
8 7 7 7 7 7 8 7 7 7 7 7 7 7 7 7 7 7 7 7 7 7 7 7 7 7 6 6 6 6 6 6 6 6 5 5 6 5 6 6 6 6 6
7 7 7 7 7 7 7 7 7 7 7 6 6 6 6 6 7 6 7 7 6 6 6 6 6 6 6 6 6 6 6 6 5 5 5 5 5 5 5 5 5 5 5
7 7 7 7 7 7 7 7 6 6 6 6 6 6 6 6 6 6 6 6 6 6 6 6 6 6 6 6 5 6 5 5 5 5 5 5 5 4 4 4 4 5 5
7 6 6 7 7 6 6 6 6 6 6 6 5 5 5 6 5 5 5 5 5 5 5 5 5 5 5 5 5 5 5 5 5 4 4 4 4 4 4 4 3 4 4
6 6 6 6 6 6 6 6 6 6 6 5 5 5 5 5 5 5 5 5 5 5 5 4 4 5 5 5 5 4 4 4 4 4 4 4 4 4 4 3 3 3 3
6 6 6 5 6 6 6 5 5 5 5 5 5 5 5 5 5 5 4 4 4 4 4 4 4 4 4 4 4 4 4 4 4 4 4 3 3 3 3 3 2 2 2
6 5 5 5 5 5 5 5 5 5 5 5 5 5 4 4 4 4 4 4 4 4 4 4 4 4 4 4 4 4 4 3 3 3 3 3 3 3 3 3 2 2 1
5 5 5 5 5 5 5 5 5 5 4 4 4 4 4 4 4 4 4 4 4 3 3 3 3 3 3 3 3 3 3 3 3 3 3 3 3 2 2 2 2 2 1
5 5 5 4 4 4 4 4 4 4 4 3 4 4 4 4 3 3 3 3 3 3 3 3 3 3 3 3 3 3 3 3 3 3 2 2 2 2 2 2 2 1 1
4 4 4 4 4 4 4 4 3 3 3 3 3 3 3 3 3 3 3 3 3 3 3 3 3 3 3 3 3 3 2 2 2 2 2 2 2 2 2 1 1 1 1
4 4 4 3 3 3 3 3 3 3 3 2 2 2 2 3 3 3 3 3 3 3 2 2 3 3 3 2 2 2 2 2 2 2 2 2 1 1 1 1 1 1 1
3 3 3 3 3 3 3 3 2 2 2 2 2 2 2 2 2 2 2 2 2 2 2 2 2 2 2 2 2 2 2 2 2 1 1 1 1 1 1 1 1 0 0
3 3 2 2 2 2 2 2 2 2 2 2 2 2 2 2 2 2 2 2 2 2 2 2 2 2 2 2 2 2 1 1 1 1 1 1 1 1 0 0 0 0 -0
2 2 2 2 2 2 2 2 2 2 1 1 1 1 1 1 1 2 2 2 2 1 1 2 1 1 1 1 1 1 1 1 0 0 0 0 0 0 0 0 0 -0 -0
2 2 2 1 1 2 1 1 1 1 1 1 1 1 1 1 1 1 1 1 1 1 1 1 1 1 1 1 1 1 0 0 0 -0 -0 -0 -0 -0 -0 -0 -0 -1 -1
1 1 1 1 1 1 1 1 1 1 1 1 0 0 0 0 0 0 1 1 1 1 1 1 1 1 1 0 0 0 -0 -0 -0 -0 -0 -0 -0 -1 -1 -1 -1 -1 -1
1 1 1 1 1 1 1 1 0 0 0 -0 -0 -0 -0 -0 -0 -0 0 0 0 0 0 0 0 0 0 0 -0 -0 -1 -1 -1 -1 -1 -1 -1 -1 -1 -1 -1 -1 -1
0 0 0 0 0 0 0 0 -0 -0 -0 -0 -0 -0 -0 -0 -0 -0 -0 -0 -0 -0 -0 -0 -0 -0 -0 -1 -1 -1 -1 -1 -1 -1 -1 -1 -1 -1 -1 -1 -2 -2 -2
0 0 0 0 -0 -0 -0 -0 -0 -1 -1 -1 -1 -1 -1 -1 -1 -1 -1 -1 -1 -1 -1 -1 -1 -1 -1 -1 -1 -1 -1 -1 -2 -2 -2 -2 -2 -2 -2 -2 -2 -2 -2
-0 -0 -0 -0 -1 -1 -1 -1 -1 -1 -1 -1 -1 -1 -1 -1 -1 -1 -1 -1 -1 -1 -1 -1 -2 -2 -2 -2 -2 -2 -2 -2 -2 -2 -2 -2 -2 -2 -2 -2 -2 -2 -3
-1 -1 -1 -1 -1 -1 -1 -1 -1 -1 -1 -2 -2 -2 -2 -2 -2 -2 -2 -2 -2 -2 -2 -2 -2 -2 -2 -2 -2 -2 -2 -2 -2 -3 -3 -3 -3 -3 -3 -3 -3 -3 -3
-1 -1 -1 -1 -1 -1 -1 -2 -2 -2 -2 -2 -2 -2 -2 -2 -2 -2 -2 -2 -2 -3 -3 -3 -3 -3 -3 -3 -3 -3 -3 -3 -3 -3 -3 -3 -3 -3 -3 -3 -3 -3 -3
-2 -2 -2 -2 -2 -2 -2 -2 -2 -2 -2 -2 -2 -3 -3 -3 -2 -2 -3 -3 -3 -3 -3 -3 -3 -3 -3 -3 -3 -3 -3 -3 -3 -3 -3 -4 -4 -4 -4 -4 -4 -4 -4
-2 -2 -2 -2 -2 -2 -2 -2 -2 -2 -3 -3 -3 -3 -3 -3 -3 -3 -3 -3 -3 -3 -3 -3 -3 -3 -3 -3 -3 -3 -3 -4 -4 -4 -4 -4 -4 -4 -4 -4 -4 -4 -4
Wind_Speed
6 5 5 5 5 5 5 5 5 5 4 4 3 3 3 2 2 2 3 3 3 3 3 2 2 2 2 2 2 2 2 1 1 1 1 2 2 2 2 1 1 1 1
6 5 5 5 5 5 5 5 5 5 5 4 4 3 3 3 2 2 3 3 3 3 3 3 3 3 2 3 3 2 2 1 1 2 2 2 2 2 2 2 2 2 2
6 6 6 6 5 5 6 5 5 5 5 5 3 3 2 2 2 3 2 3 3 4 4 4 4 3 3 3 4 4 4 2 2 2 2 2 2 2 2 3 3 3 3
5 5 5 6 6 6 6 6 6 5 5 5 5 5 5 4 4 3 3 3 3 4 4 4 4 4 3 4 4 4 4 4 3 2 2 3 2 2 2 2 3 4 4
4 5 5 5 5 5 5 5 6 5 5 5 6 6 6 5 3 3 4 3 3 4 4 5 4 4 3 4 4 4 4 4 4 3 3 3 3 4 3 4 3 3 3
4 4 4 4 4 4 5 5 6 5 5 6 6 7 7 6 5 5 4 4 3 3 4 5 5 4 4 4 4 4 5 5 5 5 4 4 3 3 4 5 5 5 4
4 4 4 4 4 5 5 5 6 6 6 6 7 7 7 7 7 6 5 5 4 4 5 5 5 4 5 5 4 4 5 5 6 6 5 5 5 4 4 4 4 5 5
4 5 5 5 5 6 6 6 6 6 6 6 7 7 7 6 5 6 6 6 5 5 5 5 5 5 5 5 5 4 5 5 5 6 5 4 4 4 4 4 4 4 5
5 5 5 5 5 6 6 7 7 6 6 6 6 6 6 6 6 6 6 5 5 5 5 5 5 5 5 5 5 4 5 5 5 5 5 4 4 4 4 4 5 4 5
5 5 5 5 5 5 6 7 7 7 6 6 6 5 6 6 5 6 6 6 6 5 5 6 5 5 5 5 5 4 5 5 5 4 5 5 4 3 4 5 5 5 5
6 6 6 5 5 5 5 6 6 6 5 5 5 5 5 5 5 5 6 6 6 6 6 6 6 5 5 5 5 5 5 5 5 4 5 5 5 4 4 4 5 5 5
6 6 6 5 4 4 4 5 5 5 5 4 5 5 4 4 5 5 5 5 6 5 5 5 5 5 5 5 5 5 5 5 5 5 5 5 4 5 4 4 5 5 5
6 5 4 4 4 4 3 4 4 4 4 4 4 4 4 4 5 5 5 5 5 5 5 5 5 5 5 5 5 5 5 5 5 5 5 6 5 5 4 5 4 4 4
7 5 4 4 4 4 3 3 4 4 4 4 4 4 4 4 4 4 4 5 5 5 5 5 5 5 5 5 5 5 5 5 5 5 6 6 6 6 5 5 5 4 4
7 6 5 4 4 3 3 3 3 3 3 4 4 4 4 3 3 3 4 4 4 5 5 5 5 5 4 4 5 5 5 5 5 5 5 5 6 6 5 5 5 4 4
7 6 5 4 4 4 3 3 3 3 3 3 3 3 3 3 3 2 3 3 4 4 4 5 5 5 4 4 5 4 5 5 5 5 5 5 5 5 6 6 6 5 5
7 6 5 5 4 4 3 3 3 3 2 3 3 3 3 3 2 2 2 3 4 4 4 4 5 5 5 4 4 4 4 4 5 4 4 4 3 4 4 4 5 5 6
6 6 5 4 4 4 3 2 2 2 2 2 3 3 2 2 2 2 2 2 2 3 3 3 3 3 3 3 3 3 4 3 4 4 4 4 4 3 3 4 4 4 4
6 5 4 3 3 3 2 1 2 2 2 2 3 3 3 2 2 3 2 2 2 2 2 2 2 3 3 3 2 2 2 2 3 3 4 4 4 4 4 3 3 4 4
4 3 3 2 2 2 2 1 2 2 2 3 3 3 3 3 3 3 2 2 2 2 1 1 2 2 3 2 2 2 2 2 2 2 3 4 5 5 4 4 4 4 4
3 2 2 2 2 2 1 2 2 3 3 2 2 2 2 3 3 2 2 2 1 1 1 1 1 2 2 2 2 2 2 2 2 2 3 3 4 5 5 4 4 4 4
3 2 2 2 2 2 1 2 2 2 2 1 1 2 2 2 2 2 2 2 2 2 1 1 1 1 1 2 2 3 3 3 3 3 3 2 3 4 4 3 3 4 4
3 2 2 2 3 2 2 2 2 2 1 1 1 2 2 2 2 3 3 2 2 2 2 2 1 1 1 1 2 3 3 2 2 2 2 3 2 2 2 2 3 3 3
3 3 2 2 3 3 2 2 2 2 2 2 2 2 2 2 2 2 3 3 3 3 2 2 2 2 2 2 1 1 1 1 1 1 1 2 2 2 2 2 2 2 2
4 3 3 3 3 3 2 2 2 2 2 2 2 2 2 2 2 2 2 3 3 3 3 3 3 3 3 2 2 1 1 1 1 1 1 1 1 1 2 2 2 2 2
4 3 3 4 3 3 3 2 2 2 2 2 2 2 2 2 2 2 1 1 2 3 3 3 3 3 4 3 3 2 2 1 2 1 2 2 2 2 2 2 2 2 2
Wind_Direction
255 234 212 207 201 197 192 190 190 191 186 188 189 193 199 203 203 200 207 209 209 205 199 190 195 202 207 211 205 206 199 226 247 250 248 236 224 226 235 241 247 251 271
255 230 209 204 204 200 197 195 196 197 197 201 203 208 203 212 211 207 210 215 218 214 206 201 201 205 209 213 212 210 213 217 232 267 261 250 220 213 240 241 250 261 278
249 229 218 212 210 208 205 202 203 204 204 201 193 178 186 204 211 214 218 220 221 217 215 213 210 204 206 214 215 211 216 218 218 245 255 254 255 287 227 242 250 263 284
245 228 218 215 212 214 212 210 205 205 205 202 200 193 203 212 226 224 223 222 223 221 216 214 214 211 212 214 213 216 224 216 219 223 253 276 287 261 263 239 246 268 276
245 230 224 221 220 217 215 215 210 207 207 207 207 206 212 213 215 219 222 223 222 222 219 215 214 214 218 219 216 215 222 220 221 225 229 240 254 257 256 265 266 272 272
245 240 235 227 222 218 214 214 210 211 211 211 213 213 216 214 209 215 220 223 226 224 222 219 219 218 220 221 220 218 223 226 223 225 228 231 237 244 253 260 267 276 284
246 244 237 234 230 218 211 210 210 212 214 215 216 217 218 216 215 219 220 222 224 230 228 222 223 222 222 222 219 219 228 229 226 230 232 234 242 248 255 260 269 283 289
263 255 245 240 235 225 216 210 212 216 215 217 219 220 221 220 221 222 223 225 227 229 227 226 226 224 220 221 219 221 228 233 227 231 234 238 240 243 244 251 258 273 278
273 264 257 251 242 230 223 218 214 216 219 221 220 221 221 221 223 224 225 227 229 229 223 226 226 225 222 223 223 224 225 230 228 229 232 238 244 243 242 241 240 248 268
277 269 264 257 248 237 226 220 218 217 220 222 221 224 224 224 223 222 223 223 225 222 221 225 226 226 223 221 222 229 226 230 230 231 235 242 243 248 247 238 239 244 253
288 274 267 258 252 243 229 222 221 218 218 221 223 226 228 226 223 221 224 223 222 218 220 223 223 222 222 220 220 223 223 227 229 234 237 244 245 243 249 242 238 244 249
301 286 275 262 250 241 234 226 223 222 221 219 223 226 227 222 221 224 226 221 217 218 217 219 220 221 220 221 222 223 223 226 228 235 238 243 245 243 248 249 245 247 251
311 303 288 269 255 246 242 239 232 229 227 224 226 225 221 220 223 224 222 217 214 214 212 214 217 220 220 222 224 224 228 230 231 234 237 242 244 244 246 250 256 258 260
310 305 301 292 279 260 251 246 242 235 229 224 229 230 225 225 227 226 221 213 209 210 211 215 218 220 221 224 225 226 232 230 233 236 238 242 243 244 247 248 252 256 258
306 298 295 290 285 277 262 254 248 242 231 225 229 235 233 231 229 222 209 208 212 216 213 211 216 221 225 227 226 227 229 232 238 241 243 245 244 248 250 251 249 249 253
297 294 290 286 280 278 279 273 256 247 237 230 233 237 234 223 221 211 196 204 215 213 207 209 215 221 227 228 229 234 232 233 239 248 251 251 241 242 248 251 251 251 249
290 287 286 284 284 280 276 265 273 253 245 243 237 235 231 221 213 200 192 202 207 207 211 216 219 227 229 220 224 231 238 238 239 242 247 255 252 249 250 250 248 248 246
285 282 284 288 292 291 284 282 283 263 250 252 241 231 223 225 209 197 201 198 197 205 214 219 221 229 229 215 221 237 239 246 243 240 244 251 256 253 254 261 266 270 267
280 277 277 281 288 285 283 284 290 281 259 255 249 236 217 212 206 202 204 203 195 204 218 221 218 226 235 212 213 237 237 239 251 248 248 250 252 250 246 255 266 280 288
288 282 284 281 283 287 278 268 275 278 265 261 258 245 225 208 207 208 205 210 206 204 208 227 232 233 241 223 219 228 231 238 252 256 254 247 254 258 250 247 250 265 279
294 293 289 281 283 282 265 259 271 277 278 271 261 242 224 212 207 198 197 192 191 186 183 209 238 237 237 223 227 239 236 239 246 248 256 256 252 258 257 259 256 262 278
284 282 281 291 295 280 243 249 270 288 288 260 240 228 224 212 192 178 184 190 187 184 183 197 239 265 256 238 233 236 244 255 251 254 261 262 263 262 262 270 264 272 277
270 269 254 278 294 288 257 250 271 282 272 248 232 227 218 209 193 184 184 193 196 196 198 205 217 250 273 257 249 245 232 242 259 260 265 275 280 288 273 256 271 274 265
265 255 243 251 274 286 280 262 263 253 238 238 237 224 211 198 194 198 193 198 204 206 205 205 221 243 260 263 257 248 208 208 233 248 246 263 278 276 274 279 286 280 269
264 250 242 247 259 269 267 266 254 229 232 237 236 227 216 203 203 205 205 213 223 222 222 221 222 227 241 257 279 277 263 247 232 258 254 255 260 267 274 280 284 276 267
256 247 246 248 254 256 258 260 245 223 218 229 234 228 221 217 206 195 202 208 233 245 247 246 245 248 253 257 264 279 290 265 243 251 244 248 254 261 267 271 273 272 267
Height
1501 1501 1502 1502 1503 1504 1504 1506 1507 1508 1509 1509 1510 1511 1512 1513 1514 1515 1515 1516 1516 1517 1517 1518 1518 1519 1519 1519 1520 1520 1521 1520 1521 1521 1520 1520 1520 1520 1520 1520 1520 1520 1520
1497 1498 1498 1499 1499 1500 1501 1502 1504 1505 1505 1506 1507 1508 1509 1509 1510 1511 1512 1512 1513 1514 1514 1515 1515 1516 1516 1517 1517 1517 1518 1518 1518 1519 1518 1519 1519 1517 1517 1517 1517 1517 1517
1493 1494 1494 1495 1496 1497 1498 1499 1500 1501 1502 1503 1504 1505 1506 1506 1507 1508 1508 1509 1509 1510 1511 1511 1512 1513 1513 1513 1514 1514 1515 1515 1515 1516 1517 1517 1516 1516 1514 1514 1514 1514 1514
1490 1490 1491 1492 1492 1494 1495 1496 1497 1498 1499 1500 1500 1501 1501 1502 1503 1504 1504 1505 1506 1506 1507 1508 1508 1509 1510 1510 1511 1511 1512 1512 1512 1513 1513 1514 1513 1514 1512 1512 1511 1511 1511
1487 1487 1488 1488 1489 1490 1491 1492 1493 1494 1495 1496 1497 1497 1498 1499 1500 1500 1501 1501 1502 1503 1503 1504 1505 1505 1506 1506 1507 1507 1508 1508 1509 1509 1509 1509 1510 1510 1509 1508 1508 1508 1507
1484 1485 1485 1485 1486 1487 1488 1488 1489 1490 1491 1492 1493 1494 1494 1495 1495 1496 1497 1498 1498 1499 1499 1500 1501 1501 1502 1503 1503 1504 1504 1505 1505 1505 1505 1506 1506 1506 1506 1505 1504 1504 1503
1482 1482 1482 1481 1482 1482 1483 1484 1485 1486 1487 1487 1488 1489 1490 1491 1491 1492 1493 1493 1494 1495 1495 1496 1497 1497 1498 1499 1499 1500 1500 1501 1501 1501 1502 1502 1502 1503 1502 1502 1501 1500 1500
1479 1478 1478 1478 1478 1478 1479 1480 1481 1481 1482 1483 1484 1485 1486 1487 1487 1488 1489 1489 1490 1491 1492 1492 1493 1493 1494 1494 1495 1495 1496 1497 1497 1497 1498 1498 1498 1498 1498 1498 1498 1497 1496
1476 1475 1475 1475 1474 1475 1475 1476 1476 1477 1477 1478 1479 1480 1481 1482 1482 1483 1484 1485 1486 1487 1487 1488 1489 1489 1489 1490 1491 1491 1492 1492 1493 1493 1494 1494 1494 1494 1494 1494 1494 1495 1493
1473 1472 1472 1471 1471 1471 1472 1472 1473 1473 1473 1474 1474 1475 1476 1477 1478 1479 1480 1481 1481 1482 1483 1483 1484 1485 1485 1486 1487 1487 1488 1488 1489 1489 1489 1490 1490 1490 1490 1490 1490 1490 1490
1471 1470 1469 1469 1468 1468 1469 1469 1469 1469 1470 1470 1470 1471 1472 1473 1474 1475 1476 1476 1477 1478 1478 1479 1480 1481 1481 1482 1482 1483 1484 1484 1484 1485 1485 1485 1486 1486 1485 1485 1485 1486 1486
1468 1467 1467 1466 1466 1466 1466 1466 1466 1466 1466 1466 1467 1467 1468 1469 1470 1470 1471 1472 1472 1473 1474 1475 1476 1476 1477 1477 1478 1479 1479 1480 1480 1481 1481 1481 1481 1481 1481 1481 1481 1481 1481
1465 1464 1463 1463 1463 1463 1463 1463 1463 1463 1463 1463 1463 1463 1464 1465 1465 1466 1467 1467 1468 1469 1470 1471 1472 1472 1473 1473 1474 1475 1475 1476 1476 1477 1477 1477 1477 1477 1477 1477 1477 1477 1476
1463 1462 1461 1460 1460 1460 1460 1460 1460 1460 1460 1460 1460 1460 1460 1461 1461 1462 1462 1463 1463 1464 1465 1466 1467 1468 1469 1469 1470 1471 1471 1472 1472 1473 1473 1473 1473 1473 1473 1473 1473 1473 1472
1461 1460 1459 1458 1457 1457 1457 1457 1457 1457 1457 1456 1456 1456 1457 1457 1457 1458 1458 1459 1459 1460 1461 1462 1463 1464 1465 1466 1466 1467 1467 1467 1468 1468 1469 1469 1469 1469 1469 1469 1469 1469 1468
1458 1457 1456 1456 1455 1454 1454 1454 1454 1454 1454 1453 1453 1453 1453 1453 1454 1454 1454 1455 1455 1456 1457 1458 1459 1460 1461 1462 1463 1463 1463 1464 1464 1464 1465 1465 1465 1465 1465 1465 1465 1465 1464
1456 1455 1454 1453 1453 1452 1452 1451 1451 1451 1451 1450 1450 1450 1450 1450 1450 1451 1451 1451 1452 1453 1454 1455 1456 1457 1458 1458 1459 1459 1460 1460 1460 1460 1460 1461 1461 1461 1461 1461 1461 1460 1460
1453 1452 1452 1451 1450 1450 1450 1449 1449 1449 1448 1448 1448 1448 1447 1447 1447 1448 1448 1449 1449 1450 1451 1452 1452 1453 1454 1455 1455 1456 1456 1456 1456 1457 1457 1457 1457 1457 1457 1457 1457 1456 1456
1451 1450 1449 1449 1448 1448 1447 1447 1446 1446 1446 1445 1445 1445 1445 1444 1445 1445 1445 1446 1447 1447 1448 1449 1449 1450 1451 1451 1452 1452 1452 1452 1453 1453 1453 1454 1454 1454 1454 1453 1453 1452 1452
1448 1447 1446 1446 1446 1445 1445 1445 1444 1444 1443 1443 1443 1443 1443 1443 1443 1443 1443 1444 1445 1445 1445 1446 1447 1447 1448 1448 1449 1449 1449 1449 1450 1450 1450 1451 1451 1451 1451 1450 1450 1449 1449
1445 1444 1444 1443 1443 1443 1443 1442 1442 1442 1441 1441 1441 1440 1441 1441 1441 1441 1442 1442 1442 1443 1443 1444 1445 1445 1445 1446 1446 1446 1447 1447 1447 1447 1448 1448 1448 1448 1448 1447 1447 1446 1446
1443 1442 1441 1441 1441 1441 1440 1440 1440 1440 1439 1439 1438 1438 1438 1439 1439 1439 1440 1440 1441 1441 1441 1442 1442 1442 1443 1444 1444 1444 1444 1445 1445 1445 1445 1445 1445 1445 1445 1444 1444 1444 1443
1440 1440 1439 1438 1438 1438 1438 1438 1438 1437 1437 1436 1436 1436 1436 1436 1437 1437 1438 1438 1439 1439 1439 1440 1440 1440 1441 1441 1442 1442 1442 1442 1442 1442 1443 1443 1443 1442 1442 1441 1441 1441 1440
1438 1437 1437 1436 1436 1436 1436 1436 1436 1435 1435 1434 1434 1434 1434 1434 1435 1435 1436 1436 1436 1437 1437 1437 1437 1438 1438 1439 1439 1439 1440 1440 1440 1440 1440 1440 1440 1439 1439 1438 1438 1438 1437
1435 1435 1434 1434 1433 1433 1433 1433 1433 1433 1433 1432 1432 1431 1432 1432 1432 1433 1433 1434 1434 1434 1435 1435 1435 1435 1435 1436 1437 1437 1437 1437 1437 1437 1437 1437 1437 1436 1436 1435 1435 1434 1434
1432 1432 1432 1431 1431 1431 1430 1431 1431 1431 1430 1430 1429 1429 1429 1429 1429 1430 1431 1431 1432 1432 1433 1433 1433 1433 1434 1434 1434 1435 1435 1435 1435 1435 1435 1434 1434 1434 1433 1432 1432 1431 1431